IRIDIUM 167

Last updated on Sun Jun 21 2026 00:03:14 GMT+0000 (Coordinated Universal Time)

1 43931U 19002K 26171.43410744 .00000005 00000+0 -51866-5 0 9992 2 43931 86.3966 352.2364 0001784 94.1066 266.0334 14.34217494389420
UTC large
Height (km)
Speed (km/s)
/
Latitude / Longitude
Inclination (degrees)
Orbital Period (minutes)
Azimuth
Elevation
Range (km)
Doppler Factor

Next 0 passes for location: London (51.5072 / 0.1276)

No passes found over London.
IRIDIUM 167